Location: Unspecified
(0.0000°N, 0.0000°E)
Time: 02:41:24
(UTC+02:00)

SJ-6B - Visible Passes

Search period start: 26 July 2016 00:00
Search period end: 05 August 2016 00:00
Orbit: 512 x 586 km, 97.8° (Epoch: 25 July)

Date Brightness Start Highest point End Pass type
(mag) Time Alt. Az. Time Alt. Az. Time Alt. Az.
26 Jul 2.9 20:47:48 10° SSE 20:51:56 69° ENE 20:55:58 10° N visible
27 Jul 3.0 20:43:18 10° SSE 20:47:21 57° E 20:51:20 10° N visible
28 Jul 3.2 20:38:48 10° SSE 20:42:47 48° ENE 20:46:41 10° N visible
29 Jul 3.4 20:34:21 10° SSE 20:38:13 40° ENE 20:42:00 10° N visible
30 Jul 3.6 20:29:55 10° SE 20:33:39 34° ENE 20:37:18 10° NNE visible
01 Aug 6.0 21:57:37 10° WSW 21:58:52 11° WSW 22:00:08 10° W visible
02 Aug 5.9 21:52:22 10° SW 21:54:19 13° WSW 21:56:15 10° WNW visible
03 Aug 5.8 21:47:19 10° SW 21:49:45 15° WSW 21:52:09 10° WNW visible
04 Aug 5.6 21:42:24 10° SW 21:45:11 18° WSW 21:47:56 10° WNW visible
